[[{"header":{"parameterUnit":"m.s-1","parameterCategory":2,"la1":30.2991,"la2":30.254,"lo1":-89.0895,"lo2":-89.0444,"dx":0.0017,"dy":0.0017,"nx":28,"ny":28,"refTime":"2022-12-14T09:00:00:Z","depth":"0","parameterNumber":2,"parameterNumberName":"U-component_of_CURRENTS"},"data":[0,0,0,0,0,0,0,0,0,0,0,0,0,0,0,0,0,0,0,0,0,0,0,0,0,0,0,0,0,0,0,0,0,0,0,0,0,0,0,0,0,0,0,0,0,0,0,0,0,0,0,0,0,0,0,0,0,0,0.2719,0.2721,0,0.2816,0.2817,0.2818,0.2834,0.2833,0.2833,0.2832,0.2846,0.2846,0.2847,0,0,0,0,0,0,0,0,0,0,0,0,0,0.2591,0.2593,0.2719,0.2721,0.2722,0.2816,0.2817,0.2818,0.2834,0.2833,0.2832,0.2832,0.2845,0.2846,0.2847,0,0,0,0,0,0,0,0,0,0,0,0,0,0.2659,0.2593,0.2719,0.2744,0.2748,0.2816,0.2817,0.2818,0.2834,0.2833,0.2832,0.2832,0.2845,0.2846,0.2847,0.2869,0,0,0.2851,0.2852,0,0,0,0,0,0,0,0,0.2655,0.2663,0.2739,0.2743,0.2747,0.2816,0.2777,0.2833,0.2834,0.2797,0.2832,0.2831,0.2831,0.2833,0.2849,0.287,0.287,0.2851,0.2852,0.2853,0.2853,0,0,0,0,0,0,0,0.2651,0.266,0.2753,0.2741,0.2746,0.2766,0.2774,0.2788,0.2812,0.28,0.2802,0.282,0.2832,0.2848,0.2849,0.2871,0.2851,0.2852,0.2853,0.2854,0.296,0.2962,0,0,0,0,0,0,0.2646,0.2655,0.275,0.2757,0.2703,0.2769,0.2778,0.2791,0.2814,0.2819,0.282,0.282,0.2846,0.2848,0.2849,0.2908,0.2853,0.2854,0.2854,0.2958,0.2961,0.2963,0,0,0,0,0,0,0.2642,0.2653,0.2747,0.2711,0.2725,0.2772,0.2787,0.2793,0.2813,0.2831,0.2833,0.2834,0.2845,0.2848,0.2886,0.2907,0.2854,0.2855,0.2956,0.2959,0.2962,0.3003,0,0,0,0,0,0,0.2638,0.2651,0.2659,0.2711,0.2727,0.2787,0.2788,0.2796,0.2827,0.2828,0.2844,0.2844,0.2845,0.2885,0.2887,0.2907,0.2856,0.2953,0.2957,0.2961,0.2999,0.3007,0.3015,0,0,0,0,0,0.2633,0.2648,0.2659,0.2671,0.2737,0.2789,0.2798,0.2827,0.2828,0.284,0.2867,0.2844,0.2911,0.2888,0.289,0.2911,0.2951,0.2956,0.296,0.2996,0.3006,0.3014,0,0,0,0,0,0,0.2595,0.2653,0.2666,0.2697,0.274,0.2792,0.2812,0.2832,0.2863,0.2862,0.2872,0.2876,0.2912,0.2916,0.2889,0.2957,0.2927,0.2932,0.2953,0.2962,0.297,0.2962,0.2857,0,0,0,0,0,0.2592,0.2619,0.2674,0.2699,0.272,0.2766,0.2792,0.2812,0.285,0.2863,0.2878,0.2903,0.2935,0.2951,0.2969,0.301,0.3007,0.3027,0.3034,0.3041,0.3039,0.308,0.3091,0.2978,0.2978,0.2978,0,0,0.2584,0.2622,0.2636,0.2694,0.2727,0.2771,0.2778,0.2818,0.2856,0.2859,0.2905,0.2922,0.2952,0.2997,0.3014,0.3002,0.307,0.3047,0.3052,0.3047,0.3086,0.3097,0.3107,0.2982,0.2981,0.298,0,0,0.2595,0.2615,0.2647,0.2684,0.2742,0.2772,0.2785,0.2839,0.2862,0.2919,0.293,0.2968,0.3013,0.3042,0.3064,0.3128,0.3103,0.3132,0.3169,0.321,0.3219,0.3227,0.3225,0.3232,0.3143,0.3143,0.3143,0,0.2584,0.2631,0.2663,0.2708,0.2743,0.2774,0.2816,0.2852,0.2912,0.2943,0.2936,0.3027,0.3038,0.3112,0.3134,0.3142,0.3148,0.3128,0.3218,0.3226,0.3233,0.3229,0.3237,0.3145,0.3145,0.3145,0.3145,0,0.2625,0.2662,0.2683,0.2749,0.2788,0.2824,0.2881,0.2921,0.295,0.2987,0.3055,0.3086,0.3142,0.3155,0.3165,0.3231,0.3211,0.3214,0.3187,0.3246,0.3239,0.3246,0.3149,0.3148,0.3147,0.3147,0,0,0.2596,0.2693,0.2699,0.2732,0.2809,0.284,0.2914,0.2986,0.3029,0.3082,0.3145,0.3205,0.3213,0.3239,0.3254,0.3289,0.3338,0.3277,0.3278,0.3261,0.3402,0.3367,0.3371,0.336,0.3362,0.3364,0.337,0,0.2616,0.269,0.2744,0.2808,0.2844,0.2906,0.2968,0.3035,0.3087,0.3149,0.32,0.3249,0.325,0.3272,0.3316,0.3332,0.3361,0.3334,0.3359,0.3358,0.3311,0.3381,0.3334,0.3335,0.3376,0.3378,0.3378,0,0.2635,0.2682,0.2748,0.2832,0.2854,0.2896,0.2989,0.305,0.315,0.3194,0.3266,0.3297,0.3366,0.3349,0.3418,0.3402,0.3407,0.3411,0.3412,0.3369,0.3339,0.3288,0.3346,0.3315,0.3389,0.3388,0.3387,0,0.2581,0.2679,0.2724,0.2754,0.2859,0.2902,0.2953,0.3054,0.3099,0.3211,0.3248,0.3343,0.3376,0.3423,0.345,0.3439,0.3507,0.3492,0.3461,0.3457,0.3416,0.3405,0.3435,0.3538,0.3538,0.3538,0.3538,0,0.2572,0.2606,0.2697,0.2719,0.2761,0.2855,0.2904,0.2985,0.3084,0.313,0.3246,0.3296,0.3397,0.3454,0.3472,0.3493,0.3531,0.3475,0.3471,0.3428,0.3419,0.3386,0.3365,0.3538,0.3538,0.3538,0.3538,0,0.2515,0.2576,0.2621,0.2715,0.2734,0.276,0.2841,0.2879,0.2993,0.3063,0.3098,0.3258,0.3345,0.3428,0.3501,0.3504,0.3455,0.3526,0.345,0.3437,0.3362,0.3345,0.3183,0.3082,0.3488,0.3487,0.3487,0,0.2503,0.2521,0.2581,0.2585,0.2623,0.2665,0.2688,0.2806,0.2855,0.3026,0.3056,0.3189,0.3281,0.3393,0.345,0.3498,0.3413,0.345,0.3425,0.3364,0.3342,0.3176,0.3089,0.3378,0.3376,0.3375,0.3374,0,0.2474,0.2485,0.2515,0.2511,0.2523,0.2536,0.2589,0.2611,0.2763,0.2842,0.2967,0.3062,0.3226,0.33,0.3392,0.341,0.3321,0.3425,0.3403,0.3295,0.3076,0.2975,0.3338,0.3364,0.3365,0.3366,0.3367,0.3367,0.244,0.2433,0.2452,0.2449,0.2439,0.2421,0.2405,0.249,0.2554,0.2679,0.2827,0.2951,0.3163,0.3309,0.3291,0.3302,0.3224,0.327,0.3262,0.3102,0.2982,0.3301,0.3301,0.3302,0.3302,0.3303,0.3303,0,0.2395,0.2391,0.2388,0.2361,0.231,0.2337,0.2349,0.2336,0.2381,0.2539,0.2655,0.2891,0.3011,0.3141,0.3275,0.3203,0.3013,0.3132,0.2926,0.2855,0.3206,0.3185,0.3112,0.3112,0.3112,0.3112,0.3112,0.3112,0.2368,0.2341,0.2341,0.2254,0.2222,0.2132,0.2117,0.2122,0.2206,0.2329,0.2474,0.2633,0.2986,0.3229,0.3246,0.316,0.2923,0.2796,0.2727,0.3065,0.3078,0.309,0.3067,0.297,0.297,0.2275,0.227,0.2267]},{"header":{"parameterUnit":"m.s-1","parameterCategory":2,"la1":30.2991,"la2":30.254,"lo1":-89.0895,"lo2":-89.0444,"dx":0.0017,"dy":0.0017,"nx":28,"ny":28,"refTime":"2022-12-14T09:00:00:Z","depth":"0","parameterNumber":3,"parameterNumberName":"V-component_of_CURRENTS"},"data":[0,0,0,0,0,0,0,0,0,0,0,0,0,0,0,0,0,0,0,0,0,0,0,0,0,0,0,0,0,0,0,0,0,0,0,0,0,0,0,0,0,0,0,0,0,0,0,0,0,0,0,0,0,0,0,0,0,0,-0.0285,-0.0287,0,-0.0411,-0.0413,-0.0415,-0.0527,-0.0528,-0.0529,-0.053,-0.0665,-0.0667,-0.067,0,0,0,0,0,0,0,0,0,0,0,0,0,-0.0206,-0.0207,-0.0285,-0.0287,-0.0288,-0.0411,-0.0413,-0.0415,-0.0527,-0.0528,-0.053,-0.0531,-0.0664,-0.0667,-0.067,0,0,0,0,0,0,0,0,0,0,0,0,0,-0.0279,-0.0207,-0.0285,-0.0357,-0.0364,-0.0411,-0.0413,-0.0416,-0.0527,-0.0528,-0.053,-0.0531,-0.0663,-0.0667,-0.0671,-0.0661,0,0,-0.0682,-0.0684,0,0,0,0,0,0,0,0,-0.0275,-0.0282,-0.0345,-0.0352,-0.036,-0.0453,-0.0435,-0.0497,-0.0526,-0.0468,-0.053,-0.0532,-0.0592,-0.0602,-0.0625,-0.0668,-0.0674,-0.0683,-0.0685,-0.0687,-0.0688,0,0,0,0,0,0,0,-0.027,-0.0278,-0.0338,-0.0346,-0.0356,-0.0405,-0.0417,-0.0448,-0.0521,-0.0473,-0.0481,-0.049,-0.0597,-0.0621,-0.0629,-0.0676,-0.0683,-0.0686,-0.0688,-0.069,-0.075,-0.0749,0,0,0,0,0,0,-0.0244,-0.0273,-0.0334,-0.0341,-0.0318,-0.0404,-0.0418,-0.0424,-0.0521,-0.0537,-0.0489,-0.0495,-0.0614,-0.0625,-0.0634,-0.0633,-0.0687,-0.069,-0.0692,-0.075,-0.075,-0.0749,0,0,0,0,0,0,-0.0242,-0.0248,-0.0329,-0.0308,-0.0322,-0.0403,-0.0409,-0.0425,-0.0447,-0.0532,-0.0549,-0.0494,-0.0616,-0.0629,-0.0664,-0.0639,-0.0692,-0.0695,-0.0751,-0.075,-0.0749,-0.0627,0,0,0,0,0,0,-0.0239,-0.0246,-0.0238,-0.0306,-0.0322,-0.0339,-0.0408,-0.0426,-0.045,-0.0459,-0.0542,-0.0557,-0.0618,-0.0658,-0.0668,-0.0645,-0.0698,-0.0752,-0.0751,-0.0749,-0.0632,-0.0622,-0.0613,0,0,0,0,0,-0.0235,-0.0213,-0.0237,-0.0245,-0.0309,-0.0338,-0.035,-0.0416,-0.0447,-0.0444,-0.0511,-0.0554,-0.0657,-0.066,-0.0672,-0.065,-0.0753,-0.0751,-0.075,-0.0636,-0.0624,-0.0614,0,0,0,0,0,0,-0.0168,-0.0224,-0.0252,-0.0246,-0.0282,-0.0356,-0.0358,-0.0399,-0.0448,-0.0456,-0.0543,-0.0562,-0.0585,-0.0631,-0.0633,-0.0665,-0.0711,-0.0712,-0.0621,-0.061,-0.0601,-0.0574,-0.0702,0,0,0,0,0,-0.0148,-0.0153,-0.0207,-0.0202,-0.0213,-0.028,-0.0299,-0.0337,-0.0391,-0.0415,-0.0476,-0.0538,-0.0587,-0.0609,-0.0658,-0.0666,-0.0705,-0.0661,-0.0652,-0.0644,-0.063,-0.0666,-0.0658,-0.0743,-0.0744,-0.0744,0,0,-0.0122,-0.0151,-0.0155,-0.0189,-0.0224,-0.0227,-0.0296,-0.0307,-0.0314,-0.0418,-0.0442,-0.0504,-0.0582,-0.0605,-0.0618,-0.0639,-0.064,-0.0641,-0.0634,-0.0625,-0.0664,-0.0655,-0.0648,-0.0742,-0.0743,-0.0743,0,0,-0.0068,-0.0093,-0.008,-0.0101,-0.0135,-0.0174,-0.0168,-0.0227,-0.0256,-0.0282,-0.0363,-0.0405,-0.0477,-0.0529,-0.0565,-0.0527,-0.059,-0.0545,-0.0472,-0.0507,-0.05,-0.0494,-0.0526,-0.0524,-0.0538,-0.0538,-0.0538,0,-0.0032,-0.003,-0.0077,-0.0067,-0.0077,-0.0141,-0.0123,-0.0154,-0.0218,-0.0234,-0.0272,-0.0379,-0.044,-0.0473,-0.047,-0.0503,-0.0537,-0.0506,-0.0492,-0.0488,-0.0484,-0.0518,-0.0518,-0.0532,-0.0532,-0.0533,-0.0534,0,0.0024,0.0027,0.0039,0.0023,0.0013,0.0021,-0.0023,-0.0032,-0.0075,-0.0122,-0.016,-0.0248,-0.0313,-0.0336,-0.0396,-0.0398,-0.0434,-0.0475,-0.0514,-0.0467,-0.0507,-0.0509,-0.0523,-0.0525,-0.0527,-0.0529,0,0,0.0096,0.0081,0.0084,0.0093,0.0062,0.0065,0.0069,0.0047,0.005,-0.0013,-0.0023,-0.0106,-0.0159,-0.0203,-0.0275,-0.0305,-0.0309,-0.037,-0.0375,-0.0389,-0.0383,-0.0391,-0.0395,-0.0349,-0.0349,-0.0349,-0.0419,0,0.0152,0.0189,0.0162,0.0202,0.0219,0.0175,0.0184,0.016,0.0116,0.0093,0.0011,-0.0031,-0.0107,-0.0135,-0.0174,-0.0282,-0.0309,-0.0286,-0.0438,-0.0442,-0.0444,-0.0395,-0.038,-0.0439,-0.0421,-0.0421,-0.0422,0,0.0211,0.0226,0.0273,0.0288,0.0295,0.0313,0.0317,0.0315,0.0266,0.0228,0.0174,0.0097,0.0038,-0.0032,-0.0163,-0.0147,-0.0246,-0.0327,-0.0332,-0.0381,-0.0452,-0.0487,-0.0444,-0.0618,-0.0425,-0.0425,-0.0424,0,0.0276,0.0305,0.0346,0.035,0.0358,0.0384,0.039,0.0361,0.0369,0.0314,0.0304,0.0208,0.0163,0.004,-0.0125,-0.0146,-0.027,-0.0327,-0.0423,-0.0426,-0.0462,-0.0468,-0.0594,-0.0404,-0.0404,-0.0403,-0.0403,0,0.0334,0.0369,0.0387,0.041,0.0478,0.0459,0.0513,0.0496,0.0482,0.0502,0.0384,0.0377,0.018,0.0078,-0.008,-0.0243,-0.0235,-0.0393,-0.0436,-0.042,-0.042,-0.0616,-0.0717,-0.0406,-0.0405,-0.0405,-0.0404,0,0.0382,0.0392,0.0447,0.0483,0.0508,0.0554,0.0604,0.0638,0.0608,0.0631,0.0622,0.0508,0.0373,0.0177,-0.0032,-0.0175,-0.0439,-0.0404,-0.0367,-0.0403,-0.0653,-0.0746,-0.0908,-0.1,-0.0517,-0.0518,-0.0518,0,0.0402,0.0434,0.0506,0.0551,0.0573,0.0641,0.0692,0.0699,0.0736,0.0719,0.0742,0.0624,0.0558,0.0254,-0.0026,-0.0287,-0.046,-0.0445,-0.0481,-0.0645,-0.0783,-0.0845,-0.0915,-0.0489,-0.0489,-0.0489,-0.0489,0,0.0434,0.0461,0.0505,0.0606,0.068,0.0768,0.0845,0.0902,0.0914,0.0935,0.095,0.0904,0.0607,0.0354,-0.001,-0.021,-0.0563,-0.0455,-0.0641,-0.077,-0.0833,-0.0948,-0.047,-0.049,-0.049,-0.049,-0.049,-0.049,0.0453,0.0491,0.0558,0.0657,0.0756,0.0888,0.0981,0.106,0.115,0.1219,0.1144,0.1122,0.0734,0.0237,-0.0065,-0.0583,-0.0599,-0.0733,-0.0833,-0.088,-0.0964,-0.0477,-0.0537,-0.0537,-0.0537,-0.0537,-0.0537,0,0.0467,0.0518,0.0605,0.0737,0.0864,0.0914,0.1077,0.118,0.1315,0.1385,0.141,0.1223,0.0732,0.0227,-0.0464,-0.0861,-0.1024,-0.1091,-0.1193,-0.1249,-0.0828,-0.0823,-0.0928,-0.0928,-0.0928,-0.0928,-0.0927,-0.0927,0.0475,0.0548,0.06,0.0805,0.0914,0.1102,0.1215,0.1372,0.148,0.1608,0.1624,0.1596,0.1223,-0.0089,-0.1006,-0.1245,-0.1518,-0.1578,-0.1735,-0.1467,-0.1441,-0.1417,-0.1436,-0.1667,-0.1668,-0.2102,-0.2107,-0.211]}],[{"header":{"parameterUnit":"m.s-1","parameterCategory":2,"la1":30.2991,"la2":30.254,"lo1":-89.0895,"lo2":-89.0444,"dx":0.0017,"dy":0.0017,"nx":28,"ny":28,"refTime":"2022-12-14T09:00:00:Z","depth":"2","parameterNumber":2,"parameterNumberName":"U-component_of_CURRENTS"},"data":[0,0,0,0,0,0,0,0,0,0,0,0,0,0,0,0,0,0,0,0,0,0,0,0,0,0,0,0,0,0,0,0,0,0,0,0,0,0,0,0,0,0,0,0,0,0,0,0,0,0,0,0,0,0,0,0,0,0,0.2376,0.2377,0,0.248,0.2481,0.2482,0.252,0.2519,0.2519,0.2519,0.2533,0.2533,0.2534,0,0,0,0,0,0,0,0,0,0,0,0,0,0.2271,0.2272,0.2375,0.2377,0.2378,0.248,0.2481,0.2482,0.252,0.2519,0.2519,0.2519,0.2533,0.2533,0.2534,0,0,0,0,0,0,0,0,0,0,0,0,0,0.2339,0.2273,0.2375,0.241,0.2414,0.2479,0.2481,0.2483,0.252,0.2519,0.2519,0.2519,0.2532,0.2533,0.2534,0.2549,0,0,0.2537,0.2538,0,0,0,0,0,0,0,0,0.2335,0.2343,0.2403,0.2407,0.2412,0.2487,0.245,0.2501,0.252,0.2479,0.2519,0.2518,0.251,0.2513,0.2534,0.255,0.2551,0.2537,0.2538,0.2538,0.2539,0,0,0,0,0,0,0,0.233,0.2339,0.2416,0.2405,0.241,0.2441,0.245,0.246,0.2493,0.2482,0.2486,0.2498,0.2511,0.2533,0.2534,0.2551,0.2537,0.2538,0.2539,0.2539,0.265,0.2652,0,0,0,0,0,0,0.2316,0.2334,0.2413,0.2419,0.2373,0.2443,0.2453,0.2463,0.2495,0.2501,0.2499,0.25,0.2531,0.2533,0.2534,0.2594,0.2538,0.2539,0.254,0.2648,0.2651,0.2653,0,0,0,0,0,0,0.2314,0.2322,0.2409,0.238,0.2393,0.2445,0.2456,0.2465,0.2492,0.2509,0.2512,0.2516,0.2531,0.2533,0.2566,0.2593,0.254,0.2541,0.2645,0.2649,0.2652,0.2687,0,0,0,0,0,0,0.231,0.232,0.2332,0.2379,0.2394,0.2446,0.2457,0.2468,0.25,0.2503,0.2525,0.2526,0.2531,0.2565,0.2567,0.2593,0.2541,0.2642,0.2647,0.2651,0.2683,0.2691,0.2699,0,0,0,0,0,0.2306,0.2321,0.2331,0.2342,0.2404,0.2447,0.2458,0.2493,0.2501,0.2515,0.2544,0.2526,0.2595,0.2567,0.2569,0.2596,0.264,0.2645,0.265,0.2679,0.269,0.2698,0,0,0,0,0,0,0.227,0.2328,0.234,0.2368,0.2403,0.2453,0.2479,0.2497,0.2533,0.2541,0.2549,0.2553,0.2591,0.2596,0.2566,0.2647,0.2617,0.2623,0.2639,0.2648,0.2656,0.2651,0.2542,0,0,0,0,0,0.2269,0.2305,0.2347,0.2371,0.239,0.2434,0.2459,0.2483,0.252,0.2536,0.2555,0.2585,0.2616,0.2632,0.2654,0.2693,0.2687,0.2718,0.2726,0.2732,0.2733,0.2768,0.2778,0.2671,0.2671,0.267,0,0,0.2265,0.2299,0.232,0.2368,0.2402,0.2442,0.2448,0.2491,0.2527,0.253,0.2584,0.2604,0.2632,0.2682,0.27,0.2688,0.2758,0.2739,0.2744,0.2742,0.2774,0.2784,0.2793,0.2674,0.2674,0.2673,0,0,0.2274,0.23,0.2335,0.237,0.2424,0.2454,0.2464,0.2518,0.2543,0.2599,0.2614,0.2653,0.2702,0.273,0.275,0.2815,0.2792,0.2828,0.2867,0.2901,0.2909,0.2916,0.2903,0.2909,0.2839,0.2839,0.2839,0,0.2268,0.231,0.2349,0.239,0.2422,0.2457,0.2495,0.2532,0.2591,0.2621,0.262,0.2714,0.2728,0.2791,0.2823,0.2829,0.2833,0.2822,0.2908,0.2915,0.2922,0.2907,0.2913,0.2841,0.2841,0.2841,0.2841,0,0.2303,0.2341,0.2363,0.243,0.2468,0.2505,0.2557,0.2603,0.2638,0.2675,0.2741,0.2772,0.2829,0.2845,0.2856,0.2921,0.29,0.2904,0.2874,0.2934,0.2915,0.2921,0.2845,0.2844,0.2843,0.2843,0,0,0.2282,0.2371,0.238,0.241,0.2491,0.252,0.2595,0.2662,0.2705,0.2764,0.2818,0.2885,0.2899,0.2924,0.2938,0.2971,0.3015,0.2967,0.2967,0.2936,0.3063,0.3034,0.3036,0.3039,0.3041,0.3042,0.3022,0,0.2296,0.236,0.2412,0.2475,0.2509,0.2578,0.2637,0.2707,0.2762,0.2821,0.2868,0.2918,0.2929,0.2955,0.2996,0.3009,0.3035,0.3018,0.3025,0.3024,0.2978,0.3044,0.286,0.2827,0.3027,0.3028,0.3029,0,0.2306,0.2353,0.241,0.2492,0.2514,0.2564,0.2661,0.2718,0.2816,0.286,0.2931,0.2962,0.3024,0.3018,0.3076,0.3068,0.3075,0.3078,0.3077,0.3042,0.3007,0.2807,0.2829,0.3037,0.3037,0.3036,0.3035,0,0.225,0.2343,0.2382,0.2414,0.252,0.2569,0.2627,0.2731,0.2773,0.288,0.2921,0.2999,0.3033,0.3072,0.3106,0.3096,0.3151,0.3132,0.3104,0.3099,0.2939,0.2918,0.3174,0.3174,0.3174,0.3174,0.3174,0,0.223,0.2268,0.236,0.2386,0.2433,0.253,0.2586,0.2668,0.2766,0.2811,0.2923,0.2967,0.3055,0.3104,0.3118,0.3134,0.3166,0.3118,0.3108,0.2946,0.2927,0.3111,0.3104,0.3173,0.3173,0.3174,0.3174,0,0.2169,0.2228,0.2274,0.2378,0.2404,0.2439,0.2535,0.2577,0.2695,0.2759,0.2796,0.2942,0.302,0.3089,0.3147,0.314,0.3158,0.3155,0.2942,0.291,0.3067,0.3062,0.31,0.3099,0.3099,0.3098,0.3098,0,0.2152,0.2162,0.2235,0.2247,0.2295,0.2354,0.2389,0.2515,0.2567,0.2732,0.2757,0.2884,0.2962,0.3047,0.3079,0.3103,0.3146,0.2922,0.2882,0.308,0.3067,0.3063,0.306,0.2661,0.2657,0.2654,0.2652,0,0.2111,0.2125,0.2159,0.2172,0.2202,0.2227,0.2301,0.2324,0.2479,0.256,0.2677,0.2759,0.2889,0.2866,0.2934,0.2917,0.2908,0.2857,0.3129,0.2729,0.2671,0.2657,0.2667,0.2622,0.2625,0.2627,0.2629,0.263,0.2075,0.207,0.2092,0.21,0.2113,0.2116,0.2111,0.2209,0.2276,0.2393,0.2525,0.2593,0.2673,0.2695,0.2637,0.2606,0.2792,0.2674,0.2682,0.2694,0.2667,0.2614,0.2545,0.2548,0.255,0.2552,0.2553,0,0.2017,0.2023,0.202,0.2016,0.1981,0.2031,0.206,0.2051,0.2103,0.2231,0.2333,0.2223,0.226,0.2317,0.2253,0.2281,0.2229,0.2173,0.209,0.2124,0.2154,0.2095,0.1823,0.182,0.1817,0.1814,0,0,0.1994,0.1965,0.1957,0.1892,0.1886,0.1835,0.1831,0.1841,0.1902,0.192,0.1958,0.2165,0.2275,0.2007,0.2008,0.1897,0.1974,0.1826,0.2429,0.2368,0.2392,0.2484,0.2441,0,0,0,0,0]},{"header":{"parameterUnit":"m.s-1","parameterCategory":2,"la1":30.2991,"la2":30.254,"lo1":-89.0895,"lo2":-89.0444,"dx":0.0017,"dy":0.0017,"nx":28,"ny":28,"refTime":"2022-12-14T09:00:00:Z","depth":"2","parameterNumber":3,"parameterNumberName":"V-component_of_CURRENTS"},"data":[0,0,0,0,0,0,0,0,0,0,0,0,0,0,0,0,0,0,0,0,0,0,0,0,0,0,0,0,0,0,0,0,0,0,0,0,0,0,0,0,0,0,0,0,0,0,0,0,0,0,0,0,0,0,0,0,0,0,-0.001,-0.001,0,-0.0126,-0.0128,-0.0129,-0.024,-0.0241,-0.0242,-0.0243,-0.0364,-0.0366,-0.0368,0,0,0,0,0,0,0,0,0,0,0,0,0,0.0043,0.0043,-0.0009,-0.001,-0.0011,-0.0126,-0.0128,-0.013,-0.024,-0.0241,-0.0242,-0.0243,-0.0363,-0.0366,-0.0369,0,0,0,0,0,0,0,0,0,0,0,0,0,-0.0022,0.0043,-0.0009,-0.0076,-0.0083,-0.0125,-0.0128,-0.013,-0.024,-0.0241,-0.0242,-0.0244,-0.0362,-0.0366,-0.0369,-0.0363,0,0,-0.038,-0.0381,0,0,0,0,0,0,0,0,-0.0018,-0.0024,-0.0066,-0.0072,-0.008,-0.0166,-0.0154,-0.0207,-0.0239,-0.0185,-0.0243,-0.0244,-0.0294,-0.0303,-0.0329,-0.0368,-0.0374,-0.038,-0.0382,-0.0384,-0.0385,0,0,0,0,0,0,0,-0.0013,-0.002,-0.0061,-0.0066,-0.0075,-0.0126,-0.0137,-0.0165,-0.0234,-0.019,-0.0197,-0.0202,-0.0299,-0.0325,-0.0332,-0.0375,-0.038,-0.0383,-0.0385,-0.0387,-0.0457,-0.0457,0,0,0,0,0,0,0.0017,-0.0015,-0.0057,-0.0064,-0.0046,-0.0125,-0.0137,-0.0141,-0.0234,-0.0248,-0.0201,-0.0206,-0.0318,-0.0328,-0.0337,-0.0346,-0.0384,-0.0387,-0.0389,-0.0458,-0.0457,-0.0457,0,0,0,0,0,0,0.0019,0.0014,-0.0052,-0.0039,-0.005,-0.0123,-0.0127,-0.0142,-0.017,-0.0241,-0.0257,-0.0212,-0.032,-0.0332,-0.0363,-0.0351,-0.0389,-0.0392,-0.0458,-0.0457,-0.0457,-0.0356,0,0,0,0,0,0,0.0021,0.0016,0.0019,-0.0036,-0.0049,-0.0065,-0.0126,-0.0143,-0.0168,-0.0177,-0.0255,-0.0269,-0.0322,-0.0358,-0.0367,-0.0356,-0.0395,-0.0458,-0.0458,-0.0457,-0.036,-0.0353,-0.0346,0,0,0,0,0,0.0023,0.0039,0.002,0.0015,-0.0041,-0.0064,-0.0075,-0.0137,-0.0167,-0.0169,-0.0228,-0.0266,-0.0362,-0.036,-0.0371,-0.0361,-0.0458,-0.0458,-0.0457,-0.0363,-0.0354,-0.0346,0,0,0,0,0,0,0.0073,0.0028,0.0006,0.001,-0.0018,-0.008,-0.0088,-0.0124,-0.0173,-0.0184,-0.0257,-0.0274,-0.0301,-0.0341,-0.0337,-0.0383,-0.0418,-0.042,-0.0343,-0.0335,-0.0328,-0.0304,-0.0398,0,0,0,0,0,0.0088,0.0078,0.004,0.0043,0.0034,-0.0024,-0.0042,-0.0077,-0.0124,-0.0149,-0.0203,-0.0261,-0.0306,-0.0327,-0.0374,-0.0386,-0.0422,-0.0391,-0.0384,-0.0378,-0.0367,-0.0407,-0.0402,-0.0455,-0.0455,-0.0455,0,0,0.0107,0.0084,0.0078,0.0052,0.0021,0.0017,-0.004,-0.0054,-0.006,-0.015,-0.0178,-0.0236,-0.0305,-0.0332,-0.0347,-0.0363,-0.0381,-0.0377,-0.0371,-0.0364,-0.0406,-0.0401,-0.0396,-0.0455,-0.0455,-0.0455,0,0,0.015,0.0126,0.0133,0.0116,0.0087,0.0054,0.0058,0.0006,-0.0022,-0.0049,-0.0119,-0.0163,-0.0232,-0.0278,-0.031,-0.0288,-0.0344,-0.0309,-0.0251,-0.0289,-0.0285,-0.0281,-0.0311,-0.0311,-0.0303,-0.0303,-0.0303,0,0.0174,0.0181,0.0136,0.0144,0.0137,0.0079,0.0096,0.0064,0.0007,-0.0008,-0.0045,-0.015,-0.0205,-0.0237,-0.024,-0.027,-0.0302,-0.0273,-0.0278,-0.0276,-0.0274,-0.0305,-0.0307,-0.0298,-0.0299,-0.0299,-0.03,0,0.0224,0.0226,0.0234,0.0218,0.0209,0.0214,0.0176,0.0162,0.012,0.0077,0.0035,-0.0046,-0.0109,-0.0135,-0.0183,-0.0198,-0.0228,-0.0264,-0.0292,-0.0262,-0.0298,-0.0301,-0.0291,-0.0293,-0.0294,-0.0295,0,0,0.028,0.027,0.027,0.0281,0.0249,0.0253,0.0251,0.0232,0.023,0.0164,0.0152,0.0069,0.0015,-0.0024,-0.0088,-0.0124,-0.0141,-0.0182,-0.0186,-0.0197,-0.0221,-0.0235,-0.0241,-0.018,-0.018,-0.018,-0.0248,0,0.033,0.0366,0.0343,0.0378,0.0394,0.0351,0.0356,0.0329,0.0284,0.0256,0.0176,0.0132,0.0062,0.0032,-0.0012,-0.0115,-0.0146,-0.0119,-0.0261,-0.0265,-0.027,-0.0244,-0.0216,-0.0273,-0.0251,-0.0252,-0.0252,0,0.0384,0.0399,0.0446,0.046,0.0465,0.0478,0.0475,0.0471,0.0416,0.0376,0.0317,0.0242,0.0178,0.0113,-0.002,-0.0002,-0.0096,-0.0173,-0.0179,-0.0228,-0.0284,-0.0304,-0.0281,-0.0258,-0.0258,-0.0257,-0.0257,0,0.0445,0.0473,0.0515,0.0518,0.0523,0.0543,0.0545,0.0508,0.0514,0.0452,0.0437,0.0337,0.0289,0.0166,0.0004,-0.0011,-0.0146,-0.0189,-0.0285,-0.0287,-0.0308,-0.0312,-0.0271,-0.0271,-0.0271,-0.0271,-0.027,0,0.0502,0.0533,0.0552,0.0573,0.0633,0.0612,0.0655,0.0635,0.0612,0.0623,0.0508,0.0494,0.0298,0.0192,0.0041,-0.0124,-0.0117,-0.0263,-0.0302,-0.0273,-0.0272,-0.0301,-0.0303,-0.0273,-0.0273,-0.0272,-0.0272,0,0.0547,0.0558,0.0611,0.0643,0.0663,0.0702,0.0739,0.0764,0.0728,0.074,0.0727,0.061,0.0469,0.0276,0.0067,-0.0068,-0.0231,-0.0292,-0.0239,-0.027,-0.0356,-0.0353,-0.04,-0.0401,-0.0402,-0.0403,-0.0403,0,0.0569,0.0603,0.0668,0.0708,0.0725,0.0781,0.0822,0.082,0.0849,0.0817,0.0835,0.0708,0.0632,0.0326,0.0057,-0.0196,-0.0234,-0.0332,-0.0355,-0.0334,-0.0368,-0.0363,-0.0359,-0.0346,-0.0346,-0.0346,-0.0346,0,0.0606,0.0631,0.0673,0.0764,0.0827,0.09,0.0961,0.1009,0.1008,0.102,0.1018,0.096,0.0661,0.0407,0.0054,-0.0123,-0.0291,-0.0341,-0.0336,-0.0313,-0.0288,-0.0319,-0.0316,-0.0346,-0.0346,-0.0346,-0.0346,-0.0346,0.0627,0.0667,0.0732,0.0821,0.0903,0.1011,0.1088,0.115,0.1223,0.1258,0.1182,0.1104,0.0795,0.0351,0.0034,-0.0303,-0.0292,-0.0398,-0.0396,-0.0394,-0.0371,-0.0348,-0.0414,-0.0414,-0.0414,-0.0415,-0.0415,0,0.0648,0.0698,0.0782,0.0897,0.1002,0.1041,0.1176,0.1256,0.1363,0.1379,0.1377,0.109,0.0782,0.0422,-0.0068,-0.0358,-0.039,-0.0453,-0.0418,-0.0415,-0.0413,-0.0391,-0.0439,-0.044,-0.0441,-0.0442,0,0,0.0656,0.0731,0.0786,0.0962,0.1052,0.1206,0.1298,0.1416,0.1475,0.1514,0.1463,0.1353,0.0905,0.0556,0.0146,-0.0139,-0.021,-0.0204,-0.0152,-0.0058,-0.0052,-0.0349,-0.0307,0,0,0,0,0]}],[{"header":{"parameterUnit":"m.s-1","parameterCategory":2,"la1":30.2991,"la2":30.254,"lo1":-89.0895,"lo2":-89.0444,"dx":0.0017,"dy":0.0017,"nx":28,"ny":28,"refTime":"2022-12-14T09:00:00:Z","depth":"4","parameterNumber":2,"parameterNumberName":"U-component_of_CURRENTS"},"data":[0,0,0,0,0,0,0,0,0,0,0,0,0,0,0,0,0,0,0,0,0,0,0,0,0,0,0,0,0,0,0,0,0,0,0,0,0,0,0,0,0,0,0,0,0,0,0,0,0,0,0,0,0,0,0,0,0,0,0.1109,0.111,0,0.1218,0.1219,0.122,0.1266,0.1265,0.1265,0.1265,0.1351,0.1353,0.1356,0,0,0,0,0,0,0,0,0,0,0,0,0,0.0994,0.0996,0.1109,0.111,0.1112,0.1218,0.1219,0.1221,0.1266,0.1265,0.1265,0.1265,0.135,0.1353,0.1356,0,0,0,0,0,0,0,0,0,0,0,0,0,0.1068,0.0996,0.1109,0.1146,0.1151,0.1217,0.1219,0.1221,0.1266,0.1265,0.1265,0.1265,0.1349,0.1352,0.1356,0.1388,0,0,0.1368,0.1369,0,0,0,0,0,0,0,0,0.1063,0.1072,0.114,0.1144,0.1149,0.1227,0.121,0.1276,0.1266,0.1223,0.1265,0.1264,0.1307,0.1314,0.1337,0.1392,0.1396,0.1368,0.137,0.1372,0.1373,0,0,0,0,0,0,0,0.1058,0.1068,0.1153,0.1141,0.1147,0.1176,0.1186,0.1223,0.1266,0.1227,0.123,0.1241,0.131,0.1333,0.1339,0.1397,0.1368,0.1371,0.1374,0.1375,0.1557,0.156,0,0,0,0,0,0,0.1042,0.1063,0.1149,0.1156,0.1104,0.1178,0.1189,0.1203,0.1266,0.1275,0.1241,0.1243,0.1327,0.1335,0.1342,0.1446,0.1372,0.1376,0.1378,0.1555,0.1558,0.1561,0,0,0,0,0,0,0.1039,0.1048,0.1145,0.1111,0.1125,0.118,0.1196,0.1205,0.126,0.1278,0.1286,0.1289,0.1327,0.1337,0.14,0.1447,0.1377,0.1381,0.1552,0.1556,0.1559,0.1613,0,0,0,0,0,0,0.1035,0.1047,0.1073,0.111,0.1127,0.1198,0.1197,0.1208,0.1265,0.1269,0.1321,0.1327,0.1327,0.1395,0.1404,0.1451,0.1384,0.1549,0.1554,0.1558,0.1608,0.1618,0.1627,0,0,0,0,0,0.1031,0.106,0.1074,0.1086,0.1154,0.12,0.1212,0.1249,0.1268,0.1297,0.1334,0.1327,0.1432,0.14,0.141,0.1459,0.1546,0.1552,0.1558,0.1604,0.1616,0.1627,0,0,0,0,0,0,0.1027,0.1068,0.1084,0.1126,0.1167,0.1207,0.1248,0.1273,0.1329,0.1348,0.1358,0.1367,0.144,0.1448,0.1413,0.1528,0.1489,0.1498,0.1521,0.1533,0.1542,0.1533,0.1387,0,0,0,0,0,0.1037,0.1072,0.1109,0.1149,0.1172,0.122,0.1253,0.1282,0.1325,0.1352,0.1384,0.1428,0.147,0.1499,0.1534,0.16,0.1596,0.164,0.165,0.1657,0.166,0.1688,0.1699,0.158,0.158,0.1579,0,0,0.1044,0.1076,0.1095,0.1152,0.1192,0.123,0.124,0.1305,0.1347,0.1352,0.1433,0.1465,0.1495,0.1563,0.1597,0.1578,0.1695,0.1665,0.1671,0.1669,0.1695,0.1706,0.1716,0.1583,0.1583,0.1582,0,0,0.107,0.111,0.1145,0.118,0.1246,0.1272,0.1296,0.1358,0.1401,0.1477,0.1491,0.1544,0.1621,0.1639,0.166,0.1746,0.1742,0.1777,0.1821,0.1849,0.1858,0.1866,0.1888,0.1897,0.1783,0.1784,0.1784,0,0.1087,0.1127,0.1164,0.1205,0.1244,0.1291,0.1337,0.1384,0.1461,0.1502,0.1511,0.1631,0.1649,0.1721,0.1751,0.1765,0.1785,0.177,0.1858,0.1866,0.1873,0.1894,0.1903,0.1787,0.1786,0.1786,0.1786,0,0.1122,0.1168,0.1196,0.1257,0.1304,0.1356,0.1412,0.1471,0.153,0.1574,0.1677,0.1712,0.1779,0.1801,0.1805,0.1881,0.1881,0.1862,0.182,0.1888,0.1906,0.1915,0.1792,0.179,0.1789,0.1789,0,0,0.1128,0.1206,0.122,0.1255,0.1341,0.1378,0.1457,0.1536,0.1596,0.1677,0.1754,0.1831,0.1865,0.1891,0.1912,0.1938,0.2003,0.1935,0.1935,0.194,0.2079,0.197,0.1969,0.201,0.2011,0.2013,0.2073,0,0.1153,0.1224,0.1265,0.1339,0.1379,0.1445,0.151,0.1591,0.1668,0.1749,0.1809,0.1892,0.1897,0.1946,0.1977,0.2002,0.203,0.1988,0.2026,0.2027,0.1908,0.1976,0.2018,0.208,0.2082,0.2083,0.2084,0,0.117,0.122,0.1293,0.138,0.1408,0.1462,0.1579,0.1648,0.1759,0.1825,0.1916,0.1965,0.2043,0.2023,0.2104,0.2089,0.2094,0.2096,0.2098,0.198,0.1934,0.1998,0.21,0.2099,0.2098,0.2097,0.2096,0,0.114,0.1237,0.1297,0.1327,0.1431,0.1491,0.1562,0.1679,0.1755,0.1882,0.1951,0.2044,0.2113,0.214,0.2174,0.2153,0.2239,0.2198,0.2102,0.2094,0.2147,0.2137,0.2235,0.2235,0.2235,0.2235,0.2235,0,0.1135,0.1188,0.1291,0.1318,0.1406,0.1493,0.1606,0.1683,0.1811,0.1896,0.1998,0.2069,0.2151,0.2211,0.2208,0.2198,0.2274,0.2119,0.2105,0.2171,0.2164,0.2153,0.2143,0.2237,0.2237,0.2236,0.2236,0,0.1093,0.1158,0.1224,0.1341,0.1389,0.1457,0.1623,0.1694,0.1829,0.1941,0.1987,0.2121,0.2198,0.2256,0.2303,0.2239,0.223,0.22,0.229,0.2278,0.2054,0.2046,0.2085,0.2081,0.2079,0.2076,0.2074,0,0.1076,0.1101,0.1224,0.127,0.1333,0.1454,0.1534,0.1687,0.1763,0.1951,0.1985,0.2118,0.2188,0.2178,0.2238,0.2235,0.2201,0.2182,0.209,0.2057,0.204,0.2037,0.2033,0.207,0.2069,0.2069,0.2068,0,0.1029,0.1077,0.1124,0.1217,0.1304,0.1404,0.1529,0.1572,0.1741,0.1877,0.1942,0.1982,0.2067,0.2099,0.2131,0.2115,0.2184,0.2152,0.2156,0.2069,0.204,0.2025,0.2024,0.2058,0.206,0.206,0.2061,0,0.0991,0.1001,0.106,0.1139,0.1243,0.1313,0.14,0.1491,0.1582,0.1777,0.1794,0.1926,0.2047,0.2039,0.206,0.2053,0.2001,0.1912,0.1928,0.1939,0.1863,0.1803,0.1745,0,0,0,0,0,0.0945,0.0936,0.0984,0.1056,0.1161,0.123,0.1371,0.1458,0.1617,0.1618,0.1702,0.1767,0.1813,0.1881,0.1841,0.1986,0.2005,0.193,0.1909,0.2005,0.2016,0.1939,0,0,0,0,0,0,0.091,0.0933,0.0936,0.0975,0.102,0.1127,0.1213,0.1325,0.134,0.15,0.1536,0.1657,0.1729,0.1816,0.1805,0.1825,0.1774,0.2016,0.2011,0.1998,0.2008,0.2017,0.1942,0,0,0,0,0]},{"header":{"parameterUnit":"m.s-1","parameterCategory":2,"la1":30.2991,"la2":30.254,"lo1":-89.0895,"lo2":-89.0444,"dx":0.0017,"dy":0.0017,"nx":28,"ny":28,"refTime":"2022-12-14T09:00:00:Z","depth":"4","parameterNumber":3,"parameterNumberName":"V-component_of_CURRENTS"},"data":[0,0,0,0,0,0,0,0,0,0,0,0,0,0,0,0,0,0,0,0,0,0,0,0,0,0,0,0,0,0,0,0,0,0,0,0,0,0,0,0,0,0,0,0,0,0,0,0,0,0,0,0,0,0,0,0,0,0,0.0261,0.0261,0,0.0218,0.0218,0.0217,0.0198,0.0199,0.0199,0.0199,0.013,0.0128,0.0126,0,0,0,0,0,0,0,0,0,0,0,0,0,0.0292,0.0291,0.0261,0.0261,0.026,0.0218,0.0217,0.0217,0.0198,0.0199,0.0199,0.0199,0.0131,0.0129,0.0126,0,0,0,0,0,0,0,0,0,0,0,0,0,0.0265,0.0291,0.0261,0.0248,0.0246,0.0218,0.0217,0.0216,0.0198,0.0199,0.0199,0.0199,0.0132,0.0129,0.0126,0.0098,0,0,0.0116,0.0115,0,0,0,0,0,0,0,0,0.0266,0.0263,0.025,0.0249,0.0247,0.0216,0.0203,0.0176,0.0198,0.0214,0.0199,0.02,0.0158,0.0153,0.0141,0.0095,0.0092,0.0116,0.0114,0.0113,0.0112,0,0,0,0,0,0,0,0.0268,0.0265,0.0242,0.025,0.0248,0.0232,0.0229,0.0198,0.0182,0.0213,0.0212,0.0211,0.0157,0.0144,0.0139,0.0091,0.0116,0.0113,0.0111,0.011,0.0026,0.0026,0,0,0,0,0,0,0.0279,0.0267,0.0243,0.0241,0.026,0.0232,0.0228,0.0224,0.0183,0.0178,0.021,0.021,0.0149,0.0143,0.0137,0.0111,0.0113,0.011,0.0108,0.0026,0.0026,0.0026,0,0,0,0,0,0,0.028,0.0277,0.0245,0.0255,0.025,0.0231,0.0226,0.0223,0.0213,0.0182,0.0176,0.0206,0.0149,0.0141,0.0116,0.0108,0.0108,0.0106,0.0027,0.0026,0.0026,0.0054,0,0,0,0,0,0,0.0281,0.0278,0.0277,0.0255,0.025,0.0232,0.0226,0.0222,0.0213,0.0212,0.0176,0.017,0.0149,0.0121,0.0113,0.0104,0.0103,0.0027,0.0027,0.0026,0.0053,0.0054,0.0055,0,0,0,0,0,0.0282,0.0282,0.0278,0.0275,0.025,0.0233,0.0228,0.0214,0.0213,0.0207,0.0187,0.0171,0.011,0.0118,0.0108,0.0098,0.0028,0.0027,0.0026,0.0053,0.0054,0.0055,0,0,0,0,0,0,0.0293,0.028,0.0274,0.027,0.0255,0.023,0.0228,0.0216,0.0195,0.0197,0.0166,0.0158,0.0132,0.0111,0.012,0.0072,0.0066,0.0063,0.0089,0.009,0.0091,0.0111,0.0101,0,0,0,0,0,0.0296,0.0296,0.0276,0.0274,0.0269,0.0248,0.0239,0.0231,0.0211,0.0202,0.0176,0.0148,0.0119,0.0104,0.0076,0.0049,0.0026,0.0036,0.0037,0.0038,0.0047,0.0002,0.0,0.0023,0.0023,0.0023,0,0,0.0302,0.0294,0.0294,0.0277,0.0266,0.026,0.0243,0.0236,0.0233,0.0197,0.0182,0.0149,0.0113,0.0086,0.0072,0.0069,0.0018,0.0037,0.0038,0.0047,0.0001,-0.0001,-0.0003,0.0022,0.0022,0.0022,0,0,0.0315,0.0305,0.031,0.0299,0.0287,0.0272,0.0272,0.0248,0.024,0.022,0.0193,0.016,0.0118,0.0088,0.0069,0.0056,0.0025,0.0043,0.0062,0.0018,0.0016,0.0014,-0.0019,-0.0025,0.0043,0.0043,0.0043,0,0.0322,0.0327,0.0308,0.0309,0.0309,0.0281,0.0287,0.0269,0.024,0.0232,0.0223,0.0154,0.012,0.0084,0.008,0.0058,0.0033,0.0063,0.002,0.0017,0.0015,-0.0019,-0.0025,0.0044,0.0044,0.0044,0.0044,0,0.0339,0.0343,0.0346,0.0341,0.0333,0.0335,0.0313,0.0302,0.0287,0.0264,0.0229,0.018,0.0142,0.0117,0.0095,0.0056,0.0044,0.0027,0.0021,0.0014,-0.0021,-0.0028,0.0046,0.0046,0.0045,0.0045,0,0,0.0358,0.036,0.0362,0.0375,0.0355,0.0356,0.0347,0.0332,0.0331,0.0287,0.0275,0.0213,0.0183,0.0159,0.0117,0.0074,0.0027,0.0047,0.0044,0.0021,-0.0065,-0.0058,-0.0065,0.0001,0.0,-0.0001,-0.0082,0,0.0381,0.0404,0.0393,0.0415,0.0426,0.0404,0.0401,0.0381,0.0354,0.033,0.0271,0.0241,0.02,0.0182,0.0131,0.0055,0.0011,0.0052,-0.006,-0.0063,-0.0051,-0.0072,-0.0004,-0.0088,-0.0089,-0.009,-0.0091,0,0.0403,0.0419,0.0451,0.0468,0.0471,0.0479,0.0479,0.0472,0.0423,0.0402,0.0353,0.0301,0.0233,0.0201,0.0074,0.0101,0.0026,-0.0036,-0.0041,-0.0045,-0.0069,-0.0082,-0.0104,-0.0103,-0.0102,-0.0101,-0.01,0,0.0439,0.046,0.0496,0.0501,0.0508,0.0526,0.0529,0.0498,0.0502,0.0449,0.0438,0.0344,0.0308,0.0196,0.0072,0.0069,-0.0069,-0.009,-0.0156,-0.0156,-0.0149,-0.0146,-0.018,-0.018,-0.0179,-0.0179,-0.0179,0,0.0466,0.0496,0.0525,0.0545,0.0592,0.0579,0.0613,0.0596,0.0575,0.0579,0.0486,0.0465,0.0306,0.0206,0.0084,-0.0051,-0.0061,-0.0152,-0.0178,-0.0136,-0.0131,-0.0154,-0.015,-0.0182,-0.0182,-0.0181,-0.018,0,0.0493,0.051,0.0559,0.0594,0.0613,0.0649,0.0684,0.0701,0.0674,0.0675,0.0664,0.0556,0.0426,0.0262,0.0078,-0.0019,-0.016,-0.0207,-0.014,-0.0162,-0.0222,-0.0216,-0.0289,-0.029,-0.029,-0.029,-0.0291,0,0.0506,0.0535,0.0605,0.0642,0.0666,0.0718,0.0752,0.0754,0.0771,0.0733,0.0737,0.0619,0.0528,0.0281,0.0101,-0.0135,-0.0168,-0.0242,-0.0243,-0.0216,-0.0235,-0.0227,-0.0221,-0.0291,-0.0291,-0.0291,-0.0292,0,0.0529,0.0562,0.0605,0.0687,0.0746,0.0806,0.0856,0.0878,0.0874,0.0854,0.0796,0.0655,0.0508,0.0297,0.0113,-0.0056,-0.0197,-0.0247,-0.0247,-0.0249,-0.0219,-0.0236,-0.0229,-0.0293,-0.0293,-0.0293,-0.0293,0,0.0548,0.0587,0.0651,0.0722,0.0801,0.087,0.0894,0.0915,0.0931,0.0886,0.0869,0.0696,0.0592,0.0338,0.017,0.0001,-0.0046,-0.0103,-0.0112,-0.0113,-0.0042,0.0024,0.0002,0,0,0,0,0,0.0554,0.06,0.0673,0.0757,0.0839,0.0887,0.095,0.0964,0.0968,0.094,0.0904,0.0764,0.0505,0.039,0.0224,0.0154,-0.0079,-0.0048,-0.015,-0.0301,-0.0299,-0.0246,0,0,0,0,0,0,0.0559,0.0627,0.0673,0.0775,0.0836,0.0929,0.0977,0.0981,0.096,0.0934,0.0801,0.0723,0.0473,0.0603,0.0221,0.0168,0.008,-0.0172,-0.0176,-0.0301,-0.03,-0.0299,-0.0243,0,0,0,0,0]}]]